Location: L�gaud
(45.7115°N, 1.7775°E)
Time: 17:20:40
(UTC+00:00)

USA 305 - Pass Details

Date: 03 March 2021
Orbit: 564 x 577 km, 54.0° (Epoch: 10 April)

Event Time Altitude Azimuth Distance (km) Brightness Sun altitude
Rises 18:03:20 0° 270° (W) 2,782 9.2 -4.4°
Reaches altitude 10° 18:05:47 10° 281° (W) 1,883 7.1 -4.9°
Maximum altitude 18:09:39 32° 345° (NNW) 993 4.3 -5.5°
Drops below altitude 10° 18:13:32 10° 50° (NE) 1,879 5.1 -6.2°
Enters shadow 18:14:51 - 57° (ENE) 2,355 5.5 -6.4°
